862  
NZUS01 KOTX 151525  
RWROTX  
 
EASTERN WASHINGTON/NORTHERN IDAHO ROUNDUP  
NATIONAL WEATHER SERVICE, SPOKANE WA  
800 AM PDT WED AUG 15 2018  
 
NOTE: "FAIR" INDICATED FEW OR NO CLOUDS BELOW 12,000 FEET WITH NO  
SIGNIFICANT WEATHER AND/OR S TO VISIBILITY
.  
   
..NORTHEAST WASHINGTON AND NORTHERN IDAHO PANHANDLE
 
 
 
CITY SKY/WX TMP DP RH WIND PRES REMARKS
 
SPOKANE INTL MOSUNNY 64 42 44 E3 29.98R HAZE  
SPOKANE DOWNTO SUNNY 61 47 59 CALM 29.98R HAZE  
COEUR D ALENE SUNNY 63 50 62 E5 30.00R HAZE  
DEER PARK SUNNY 60 43 53 CALM 29.98S HAZE  
SANDPOINT SUNNY 59 46 63 CALM 30.00R  
BONNERS FERRY FAIR 63 45 51 CALM 30.00S  
   
..SOUTHEAST WASHINGTON AND SOUTHERN IDAHO PANHANDLE
 
 
 
CITY SKY/WX TMP DP RH WIND PRES REMARKS
 
WALLA WALLA SUNNY 72 40 31 E3 29.91R HAZE  
PULLMAN/MOSCOW SUNNY 68 39 34 E10 30.00R HAZE  
LEWISTON SUNNY 63 41 44 E5 29.96S  
GRANGEVILLE N/A 63 32 31 CALM 30.03S  
   
..COLUMBIA BASIN
 
 
 
CITY SKY/WX TMP DP RH WIND PRES REMARKS
 
EPHRATA CLOUDY 65 47 52 N7 29.92R HAZE  
MOSES LAKE MOSUNNY 61 44 53 N5 29.92R HAZE  
PASCO SUNNY 59 52 77 CALM 29.90R HAZE  
RICHLAND SUNNY 65 53 65 CALM 29.90S HAZE  
HERMISTON SUNNY 61 44 53 CALM 29.89S  
PENDLETON SUNNY 68 40 35 E8 29.92S HAZE  
   
..EAST SLOPES CASCADES
 
 
 
CITY SKY/WX TMP DP RH WIND PRES REMARKS
 
THE DALLES SUNNY 64 45 49 SE5 29.89R HAZE  
YAKIMA SUNNY 61 48 62 W3 29.93R HAZE  
ELLENSBURG CLOUDY 62 47 57 CALM 29.95R HAZE  
STAMPEDE PASS CLOUDY 63 49 60 W5 30.06S HAZE  
WENATCHEE PTSUNNY 64 49 57 W5 29.92R HAZE  
WINTHROP CLOUDY 53 48 81 CALM 29.97R HAZE  
OMAK SUNNY 65 52 62 N8 29.94R HAZE  
SUNNYSIDE SUNNY 60 55 84 CALM 29.91R HAZE  
   
..SOUTHERN BRITISH COLUMBIA
 
 
 
CITY SKY/WX TMP DP RH WIND PRES REMARKS
 
PENTICTON SUNNY 63 52 67 VRB2 29.96R SMOKE  
CASTLEGAR MOSUNNY 63 54 72 N6 29.99 SMOKE  
CRANBROOK SUNNY 57 45 62 CALM 30.03 SMOKE  
OSOYOOS N/A 64 55 72 N3 N/A  
CRESTON N/A 63 54 72 CALM N/A  
   
..WESTERN MONTANA
 
 
 
CITY SKY/WX TMP DP RH WIND PRES REMARKS
 
KALISPELL CLOUDY 58 48 69 W3 30.02R SMOKE  
LIBBY N/A 57 41 54 CALM 30.01S  
MISSOULA SUNNY 57 41 55 CALM 30.08R HAZE  
   
..NEIGHBORING CITIES
 
 
 
CITY SKY/WX TMP DP RH WIND PRES REMARKS
 
SEATTLE PTSUNNY 64 58 80 S5 29.94R HAZE  
PORTLAND CLOUDY 67 59 75 W5 29.93R SMOKE  
BOISE SUNNY 73 28 18 SE8 29.96R  
GREAT FALLS SUNNY 70 36 28 SW13 29.99R  
CALGARY SMOKE 63 41 45 NW6 29.95R VSB 1  
 
CLICK HERE TO GO TO PREVIOUS BULLETINS.

The Nexlab WA Page
The Nexlab ID Page Main Text Page